Location: Arena
(42.5007°N, 9.4650°E)
Time: 19:57:19
(UTC+00:00)

Resurs 01 Rocket - Pass Details

Date: 09 April 2020
Orbit: 635 x 644 km, 98.0° (Epoch: 03 June)

Event Time Altitude Azimuth Distance (km) Brightness Sun altitude
Exits shadow 20:55:19 20° 249° (WSW) 1,484 3.7 -29.3°
Maximum altitude 20:56:14 21° 266° (W) 1,433 3.8 -29.4°
Drops below altitude 10° 20:59:36 10° 316° (NW) 2,031 5.1 -29.8°
Sets 21:02:17 0° 333° (NNW) 2,947 6.1 -30.1°
